Weather History for Sioux Falls, SD

Change the Weather History Date:

Monday, July 15, 2013

  Actual Average Record
Temperature  
Mean Temperature 74 °F 73 °F  
Max Temperature 87 °F 84 °F 103 °F (1931)
Min Temperature 61 °F 62 °F 45 °F (1906)
Degree Days  
Heating Degree Days 0 0  
Month to date heating degree days 0 0  
Since 1 June heating degree days 69 51  
Since 1 July heating degree days 0 0  
Cooling Degree Days 9 9  
Month to date cooling degree days 140 122  
Year to date cooling degree days 318 293  
Since 1 June cooling degree days 276 257  
Growing Degree Days 24 (Base 50)    
Moisture  
Dew Point 63 °F    
Average Humidity 70    
Maximum Humidity 100    
Minimum Humidity 40    
Precipitation  
Precipitation 0.00 in 0.10 in 1.96 in (1900)
Month to date precipitation 0.31 1.53  
Year to date precipitation 16.90 14.78  
Snow  
Snow 0.00 in 0.00 in 0.00 in ()
Month to date snowfall 0.0 0.0  
Since 1 June snowfall 0.0 0.0  
Since 1 July snowfall 0.0 0.0  
Snow Depth 0.00 in    
Sea Level Pressure  
Sea Level Pressure 30.16 in    
Wind  
Wind Speed 8 mph (South)    
Max Wind Speed 22 mph    
Max Gust Speed 26 mph    
Visibility 9 miles    
Events      
T = Trace of Precipitation, MM = Missing Value Source: NWS Daily Summary

Daily Weather History Graph

Daily Weather History Graph

Search for Another Location

Airport:

Trip Planner

Search our weather history database for the weather conditions in past years. The results will help you decide how hot, cold, wet, or windy it might be!

Date:

Astronomy

Jul. 15, 2013 Rise Set
Actual Time 5:59 AM CDT 9:05 PM CDT
Civil Twilight 5:25 AM CDT 9:40 PM CDT
Nautical Twilight 4:40 AM CDT 10:24 PM CDT
Astronomical Twilight 3:47 AM CDT 11:17 PM CDT
Moon 1:36 PM CDT (7/15) 12:04 AM CDT (7/15)
Length of Visible Light 16h 15m
Length of Day
15h 05m
Waxing Crescent, 45% of the Moon is Illuminated
Jul 15
Waxing Crescent
Jul 15
First Quarter
Jul 22
Full
Jul 29
Last Quarter
Aug 6
New

Hourly Weather History & Observations

Time (CDT) Temp. Heat Index Dew Point Humidity Pressure Visibility Wind Dir Wind Speed Gust Speed Precip Events Conditions
12:56 AM 70.0 °F - 66.9 °F 90% 30.16 in 9.0 mi ENE 4.6 mph - N/A   Scattered Clouds
1:56 AM 66.0 °F - 66.0 °F 100% 30.16 in 4.0 mi Calm Calm - N/A   Clear
2:56 AM 64.9 °F - 64.9 °F 100% 30.16 in 2.5 mi Calm Calm - N/A   Clear
3:35 AM 66.2 °F - 64.4 °F 94% 30.18 in 5.0 mi Calm Calm - N/A   Clear
3:56 AM 68.0 °F - 64.9 °F 90% 30.17 in 9.0 mi Calm Calm - N/A   Clear
4:56 AM 64.9 °F - 63.0 °F 93% 30.17 in 6.0 mi Calm Calm - N/A   Scattered Clouds
5:56 AM 62.1 °F - 61.0 °F 96% 30.19 in 5.0 mi Calm Calm - N/A   Scattered Clouds
6:56 AM 64.0 °F - 62.1 °F 93% 30.19 in 8.0 mi Calm Calm - N/A   Partly Cloudy
7:56 AM 71.1 °F - 63.0 °F 75% 30.19 in 10.0 mi South 6.9 mph - N/A   Partly Cloudy
8:56 AM 73.9 °F - 63.0 °F 68% 30.20 in 10.0 mi SSW 8.1 mph - N/A   Partly Cloudy
9:56 AM 78.1 °F - 63.0 °F 60% 30.20 in 10.0 mi South 10.4 mph - N/A   Partly Cloudy
10:56 AM 81.0 °F 81.9 °F 62.1 °F 52% 30.19 in 10.0 mi South 10.4 mph - N/A   Partly Cloudy
11:56 AM 84.0 °F 84.5 °F 62.1 °F 47% 30.19 in 10.0 mi South 12.7 mph - N/A   Scattered Clouds
12:56 PM 84.0 °F 84.0 °F 60.1 °F 44% 30.18 in 10.0 mi South 13.8 mph 24.2 mph N/A   Scattered Clouds
1:56 PM 84.0 °F 84.4 °F 61.0 °F 46% 30.17 in 10.0 mi South 15.0 mph 21.9 mph N/A   Scattered Clouds
2:56 PM 86.0 °F 86.1 °F 61.0 °F 43% 30.16 in 10.0 mi South 15.0 mph 25.3 mph N/A   Mostly Cloudy
3:56 PM 87.1 °F 86.7 °F 60.1 °F 40% 30.14 in 10.0 mi SSW 13.8 mph 25.3 mph N/A   Scattered Clouds
4:56 PM 86.0 °F 86.3 °F 62.1 °F 44% 30.14 in 10.0 mi SSW 11.5 mph 20.7 mph N/A   Scattered Clouds
5:56 PM 86.0 °F 86.3 °F 62.1 °F 44% 30.13 in 10.0 mi South 15.0 mph 20.7 mph N/A   Partly Cloudy
6:56 PM 84.9 °F 85.9 °F 63.0 °F 48% 30.11 in 10.0 mi South 9.2 mph - N/A   Partly Cloudy
7:56 PM 82.9 °F 84.6 °F 64.9 °F 54% 30.11 in 10.0 mi South 11.5 mph - N/A   Scattered Clouds
8:56 PM 81.0 °F 83.0 °F 66.0 °F 60% 30.12 in 10.0 mi South 11.5 mph - N/A   Partly Cloudy
9:56 PM 79.0 °F - 66.0 °F 64% 30.12 in 10.0 mi South 6.9 mph - N/A   Partly Cloudy
10:56 PM 78.1 °F - 66.9 °F 68% 30.13 in 10.0 mi SSE 8.1 mph - N/A   Partly Cloudy
11:56 PM 77.0 °F - 68.0 °F 74% 30.13 in 10.0 mi South 6.9 mph - N/A   Clear